Погода в Вараклянах

Латвия     56°36′37″N   26°45′07″E
темп.,
°C
ветер,
м/с
пор.,
м/с
влажн.,
%
обл.,
%
осадки,
мм/ч
давл.,
гПа
погр.,
м
7 марта, вс
вс723:000зюз91777100 0.0 10061102
02:00+1зюз91678100 0.1 10011238
05:00−2ссз71385100 2.6 10001027
08:00−2юз5883100 3.0 998480
11:00−1зсз111757100 2.0 9992297
14:000зсз9155199 2.2 9992188
17:00−2зсз71461100 0.0 9991547
20:00−4зсз61289100 0.1 10001023
8 марта, пн
пн823:00−4зсз51080100 0.4 1001872
02:00−4сз4888100 0.7 1003653
05:00−6ссз5108271 0.1 1006637
08:00−6ссз598085 0.1 10091000
11:00−5с5870100 0.1 1011928
14:00−4с5765100 0.1 10131054
17:00−5с466980 0.0 1015895
20:00−6ссз387984 0.0 1017513
9 марта, вт
вт923:00−8с248853 0.0 1019141
02:00−9ссз229226 0.0 102069
05:00−10сз129113 0.0 102021
08:00−9зюз118253 0.0 102190
11:00−5юз236299 0.0 1021507
14:00−3юз465795 0.0 1020773
17:00−3зюз4865100 0.0 1019552
20:00−4юз4970100 0.0 1019289
10 марта, ср
ср1023:00−4зюз41071100 0.0 1018390
02:00−4зюз41079100 0.0 1018391
05:00−4зюз41081100 0.0 1018442
08:00−4юз5886100 0.1 1019416
11:00−2зюз3591100 1.0 1019441
14:00−1юз2386100 1.8 1020444
17:00−2в3596100 1.6 1019285
20:00−5св4795100 3.6 1020386
11 марта, чт
чт1123:00−6св4694100 0.6 1020310
02:00−8ссв349599 0.6 1020200
05:00−9всв239696 0.1 1019125
08:00−9вюв119387 0.1 101978
11:00−3ю358477 0.0 1017519
14:00−1ю587087 0.0 10141004
17:00−1ююв51270100 0.0 1011633
20:00−2ю81669100 0.0 1008876